Regional Weather Roundup
Issued by NWS

Home | Current Version | Previous Version | Graphics & Text | Print | Product List | Glossary On
Versions: 1 2 3 4 5 6 7 8 9 10 11 12 13 14 15 16 17 18 19 20 21 22 23 24 25 26 27 28 29 30 31 32 33 34 35 36 37 38 39 40 41 42 43 44 45 46 47 48 49 50
000
ASUS43 KBIS 290801
RWRND

NORTH DAKOTA REGIONAL WEATHER ROUNDUP
NATIONAL WEATHER SERVICE BISMARCK ND
200 AM CST THU JAN 29 2015

NOTE: "FAIR" INDICATES FEW OR NO CLOUDS BELOW 12,000 FEET WITH NO
SIGNIFICANT WEATHER AND/OR OBSTRUCTIONS TO VISIBILITY.


NDZ001>003-009>011-017-290900-
NORTHWEST NORTH DAKOTA

CITY           SKY/WX    TMP DP  RH WIND       PRES   REMARKS
WILLISTON      CLOUDY    29  22  75 NW9G21    30.37R
MINOT          CLOUDY    26  20  77 NW17      30.29R WCI  13
MINOT AFB      CLOUDY    26  25  98 NW22G28   30.29R WCI  11
$$

NDZ018>021-031>035-040>046-290900-
SOUTHWEST NORTH DAKOTA

CITY           SKY/WX    TMP DP  RH WIND       PRES   REMARKS
BISMARCK       MIX PCPN  32  28  85 NW15G25   30.29R
DICKINSON      CLOUDY    32  24  72 NW16G25   30.29R
GARRISON         N/A     28  24  85 N21       30.29R WCI  15
HETTINGER ARPT CLOUDY    33  25  72 NW14      30.32R
$$

NDZ004>008-012>016-024-026-027-054-290900-
NORTHEAST NORTH DAKOTA

CITY           SKY/WX    TMP DP  RH WIND       PRES   REMARKS
GRAND FORKS    CLOUDY    22  17  81 N22G28    30.18R WCI   6
GRND FRKS AFB  CLOUDY    23  17  80 N18G30    30.20R WCI   8
DEVILS LAKE    CLOUDY    23  18  80 NW18      30.21R WCI   9
$$

NDZ022-023-025-028>030-036>039-047>053-290900-
SOUTHEAST NORTH DAKOTA

CITY           SKY/WX    TMP DP  RH WIND       PRES   REMARKS
FARGO          CLOUDY    27  21  78 NW21      30.14R WCI  13
JAMESTOWN      CLOUDY    27  22  81 NW23G30   30.19R WCI  12
$$




USA.gov is the U.S. government's official web portal to all federal, state and local government web resources and services.